Regional Weather Roundup
Issued by NWS

Home | Current Version | Previous Version | Graphics & Text | Print | Product List | Glossary On
Versions: 1 2 3 4 5 6 7 8 9 10 11 12 13 14 15 16 17 18 19 20 21 22 23 24 25 26 27 28 29 30 31 32 33 34 35 36 37 38 39 40 41 42 43 44 45 46 47 48 49 50
000
ASUS43 KLSX 252057
RWRMO

WEATHER SUMMARY FOR MISSOURI
NATIONAL WEATHER SERVICE SPRINGFIELD MO
400 PM CDT TUE JUL 25 2017

NOTE: "FAIR" INDICATES FEW OR NO CLOUDS BELOW 12,000 FEET WITH NO
       SIGNIFICANT WEATHER AND/OR OBSTRUCTIONS TO VISIBILITY.
       CURRENT SKY AND/OR WEATHER CONDITIONS ARE NOT AVAILABLE FOR
       CHILLICOTHE AND FARMINGTON.

MOZ001>031-035>038-043-044-053-054-252200-
...NORTHERN AND WESTERN MISSOURI...

CITY           SKY/WX    TMP DP  RH WIND       PRES   REMARKS
KANSAS CTY INT MOSUNNY   94  72  48 S10       30.04F HX 102
LEE`S SUMMIT   MOSUNNY   92  74  55 S7        30.06F HX 101
ST JOSEPH      SUNNY     93  75  55 SE14      30.02F HX 104
CHILLICOTHE      N/A     89  76  65 SE9       30.07S HX 100

$$
MOZ066>068-077>081-088>096-101>105-252200-
...SOUTHWEST MISSOURI...

CITY           SKY/WX    TMP DP  RH WIND       PRES   REMARKS
SPRINGFIELD    SUNNY     96  69  41 VRB6      30.06F HX 102
JOPLIN         MOSUNNY   97  70  41 S10G17    30.06F HX 103
BRANSON        MOSUNNY   95  66  38 SW3       30.08F HX  98

$$
MOZ032>034-039>042-045>050-055>058-069>072-252200-
...CENTRAL MISSOURI...

CITY           SKY/WX    TMP DP  RH WIND       PRES   REMARKS
COLUMBIA       NOT AVBL
JEFFERSON CITY SUNNY     90  72  55 SE10      30.05F HX  97
ROLLA          SUNNY     92  67  43 E6        30.09F HX  95
SEDALIA        SUNNY     92  77  61 VRB7      30.08F HX 105
WARRENSBURG    MOSUNNY   91  72  52 E6        30.05F HX  98

$$
MOZ051-052-059>065-252200-
...EAST CENTRAL MISSOURI...

CITY           SKY/WX    TMP DP  RH WIND       PRES   REMARKS
ST LOUIS INTL  MOSUNNY   91  70  49 E12       30.09S HX  96

$$
MOZ072>076-082>087-097>100-106>115-252200-
...SOUTH CENTRAL AND SOUTHEAST MISSOURI...

CITY           SKY/WX    TMP DP  RH WIND       PRES   REMARKS
CAPE GIRARDEAU CLOUDY    88  75  65 SE6       30.06F HX  97
POPLAR BLUFF   MOSUNNY   92  75  57 SW6       30.03F HX 103
WEST PLAINS    MOSUNNY   93  66  40 S10       30.08F HX  96

$$



USA.gov is the U.S. government's official web portal to all federal, state and local government web resources and services.